Torna al catalogo

MOLNIYA 1-88

AttivoComunicazioniHEO
NORAD 23420·PAYLOAD·🇷🇺 Russia

Lanciato Dec 14, 1994 da Plesetsk Cosmodrome

Loading…

Prossimi Passaggi (prossime 24 ore)

TLE

AggiornatoSource: Space-Track

Epoca: Sep 14, 2026, 07:07 UTC

1 23420U 94081A   26257.29660486  .00000087  00000-0  00000+0 0  9990
2 23420  64.1975 205.9093 5823282 255.8663  36.1758  3.34499635165545

Traccia MOLNIYA 1-88 in tempo reale con AllMySat

Download on the App Store